Tracking 30743 objects as of 21-Jun-2025
HD Live streaming from Space Station
objects crossing your sky now

ATS 6

Track ATS 6 now!
ATS 6 is classified as:


NORAD ID: 7318
Int'l Code: 1974-039A
Perigee: 35,204.1 km
Apogee: 35,441.1 km
Inclination: 2.8 °
Period: 1,412.1 minutes
Semi major axis: 41693 km
RCS: 6.3095 m2 (large)
Launch date: May 30, 1974
Source: United States (US)
Launch site: AIR FORCE EASTERN TEST RANGE (AFETR)
Your satellite tracking list
Your tracking list is empty




NASA's NSSDC Master Catalog

Two Line Element Set (TLE):
1 07318U 74039A   25171.47614521  .00000056  00000-0  00000-0 0  9999
2 07318   2.8354 259.6285 0028420 324.4931 200.9956  1.01976315118310
Source of the keplerian elements: AFSPC